Location: Unspecified
(0.0000°N, 0.0000°E)
Time: 10:56:48
(UTC+00:00)

ARIANE 6 FM1 Upper Stage - Pass Details

Date: 21 February 2026
Orbit: 523 x 607 km, 62.0° (Epoch: 05 March)

Event Time Altitude Azimuth Distance (km) Brightness Sun altitude
Rises 19:26:27 0° 351° (N) 2,666 6.1 -17.9°
Reaches altitude 10° 19:28:47 10° 1° (N) 1,791 5.1 -18.5°
Enters shadow 19:30:05 18° 13° (NNE) 1,359 4.4 -18.8°
